• In Hungary
  • List of Countries
  • For 7 days
  • Water Temperature
  • Satellite Maps
  • Weather Map
  • News
  • Weather Widgets
  • user-avatar
    Login

    Hourly Weather Lankaran

    Today, 19 September, Wednesday

    Time Temperature Precipitation Wind Pressure Humidity
    00:00 +13°C° 0.3 mm 3 mps 637 mmHg 90%
    01:00 +13°C° 0.4 mm 3 mps 637 mmHg 90%
    02:00 +13°C° 0.4 mm 3 mps 637 mmHg 91%
    03:00 +13°C° 0.4 mm 3 mps 637 mmHg 92%
    04:00 +13°C° 0.7 mm 3 mps 637 mmHg 92%
    05:00 +13°C° 0.7 mm 3 mps 637 mmHg 93%
    06:00 +13°C° 0.7 mm 3 mps 637 mmHg 93%
    07:00 +13°C° 0.5 mm 3 mps 638 mmHg 89%
    08:00 +14°C° 0.5 mm 3 mps 638 mmHg 86%
    09:00 +14°C° 0.5 mm 3 mps 638 mmHg 82%
    10:00 +16°C° 0.3 mm 3 mps 638 mmHg 80%
    11:00 +16°C° 0.3 mm 3 mps 638 mmHg 79%
    12:00 +16°C° 0.3 mm 3 mps 638 mmHg 77%
    13:00 +16°C° 0.3 mm 3 mps 638 mmHg 78%
    14:00 +16°C° 0.3 mm 3 mps 637 mmHg 79%
    15:00 +16°C° 0.3 mm 3 mps 637 mmHg 80%
    16:00 +14°C° 0.3 mm 3 mps 637 mmHg 82%
    17:00 +14°C° 0.3 mm 3 mps 637 mmHg 85%
    18:00 +14°C° 0.3 mm 2 mps 637 mmHg 88%
    19:00 +14°C° 0.2 mm 2 mps 637 mmHg 89%
    20:00 +14°C° 0.2 mm 2 mps 637 mmHg 90%
    21:00 +14°C° 0.2 mm 2 mps 638 mmHg 91%
    22:00 +14°C° 0.2 mm 2 mps 638 mmHg 91%
    23:00 +14°C° 0.2 mm 2 mps 638 mmHg 91%

    Tomorrow, 20 September, Thursday

    Time Temperature Precipitation Wind Pressure Humidity
    00:00 +13°C° 0.2 mm 2 mps 638 mmHg 91%
    01:00 +13°C° 0.3 mm 2 mps 638 mmHg 91%
    02:00 +13°C° 0.3 mm 2 mps 638 mmHg 92%
    03:00 +13°C° 0.3 mm 2 mps 638 mmHg 92%
    04:00 +13°C° 0.4 mm 2 mps 638 mmHg 93%
    05:00 +13°C° 0.4 mm 2 mps 638 mmHg 93%
    06:00 +13°C° 0.4 mm 2 mps 638 mmHg 94%
    07:00 +13°C° 0.3 mm 2 mps 638 mmHg 91%
    08:00 +14°C° 0.3 mm 2 mps 639 mmHg 88%
    09:00 +14°C° 0.3 mm 2 mps 639 mmHg 85%
    10:00 +14°C° 0.1 mm 2 mps 639 mmHg 83%
    11:00 +15°C° 0.1 mm 2 mps 639 mmHg 81%
    12:00 +14°C° 0.1 mm 3 mps 639 mmHg 79%
    13:00 +14°C° 0.1 mm 3 mps 638 mmHg 78%
    14:00 +16°C° 0.1 mm 3 mps 638 mmHg 77%
    15:00 +16°C° 0.1 mm 3 mps 638 mmHg 76%
    16:00 +15°C° 0 mm 2 mps 638 mmHg 78%
    17:00 +15°C° 0 mm 2 mps 638 mmHg 81%
    18:00 +14°C° 0 mm 2 mps 637 mmHg 84%
    19:00 +14°C° 0 mm 2 mps 638 mmHg 86%
    20:00 +13°C° 0 mm 2 mps 638 mmHg 87%
    21:00 +13°C° 0 mm 2 mps 638 mmHg 88%
    22:00 +13°C° 0 mm 1 mps 638 mmHg 89%
    23:00 +13°C° 0 mm 1 mps 638 mmHg 90%

    Day after tomorrow, 21 September, Friday

    Time Temperature Precipitation Wind Pressure Humidity
    00:00 +13°C° 0 mm 1 mps 638 mmHg 90%
    01:00 +12°C° 0 mm 1 mps 637 mmHg 91%
    02:00 +12°C° 0 mm 1 mps 637 mmHg 92%
    03:00 +12°C° 0 mm 1 mps 637 mmHg 92%
    04:00 +12°C° 0 mm 1 mps 637 mmHg 92%
    05:00 +12°C° 0 mm 1 mps 637 mmHg 92%
    06:00 +12°C° 0 mm 1 mps 637 mmHg 92%
    07:00 +14°C° 0.1 mm 1 mps 638 mmHg 84%
    08:00 +15°C° 0.1 mm 2 mps 638 mmHg 76%
    09:00 +17°C° 0.1 mm 2 mps 639 mmHg 69%
    10:00 +17°C° 0 mm 2 mps 639 mmHg 66%
    11:00 +18°C° 0 mm 2 mps 639 mmHg 63%
    12:00 +19°C° 0 mm 3 mps 639 mmHg 60%
    13:00 +19°C° 0 mm 3 mps 638 mmHg 60%
    14:00 +20°C° 0 mm 3 mps 638 mmHg 60%
    15:00 +20°C° 0 mm 3 mps 638 mmHg 59%
    16:00 +19°C° 0 mm 3 mps 638 mmHg 67%
    17:00 +18°C° 0 mm 3 mps 637 mmHg 74%
    18:00 +16°C° 0 mm 3 mps 637 mmHg 81%
    19:00 +16°C° 0 mm 2 mps 637 mmHg 83%
    20:00 +15°C° 0 mm 2 mps 638 mmHg 86%
    21:00 +15°C° 0 mm 2 mps 638 mmHg 89%
    22:00 +15°C° 0 mm 2 mps 638 mmHg 90%
    23:00 +14°C° 0 mm 2 mps 638 mmHg 90%

    22 September, Saturday

    Time Temperature Precipitation Wind Pressure Humidity
    00:00 +14°C° 0 mm 1 mps 637 mmHg 91%
    01:00 +14°C° 0 mm 1 mps 637 mmHg 92%
    02:00 +14°C° 0 mm 1 mps 637 mmHg 92%
    03:00 +13°C° 0 mm 1 mps 637 mmHg 93%
    04:00 +13°C° 0.1 mm 1 mps 637 mmHg 93%
    05:00 +13°C° 0.1 mm 1 mps 638 mmHg 93%
    06:00 +14°C° 0.1 mm 1 mps 638 mmHg 93%
    07:00 +15°C° 0.1 mm 1 mps 638 mmHg 86%
    08:00 +16°C° 0.1 mm 2 mps 639 mmHg 79%
    09:00 +17°C° 0.1 mm 2 mps 639 mmHg 72%
    10:00 +18°C° 0 mm 2 mps 639 mmHg 67%
    11:00 +19°C° 0 mm 2 mps 639 mmHg 62%
    12:00 +20°C° 0 mm 2 mps 639 mmHg 57%
    13:00 +20°C° 0 mm 3 mps 638 mmHg 58%
    14:00 +21°C° 0 mm 3 mps 638 mmHg 58%
    15:00 +21°C° 0 mm 3 mps 638 mmHg 59%
    16:00 +19°C° 0 mm 3 mps 637 mmHg 66%
    17:00 +18°C° 0 mm 2 mps 637 mmHg 73%
    18:00 +17°C° 0 mm 2 mps 637 mmHg 80%
    19:00 +16°C° 0 mm 2 mps 637 mmHg 81%
    20:00 +16°C° 0 mm 1 mps 637 mmHg 83%
    21:00 +15°C° 0 mm 1 mps 637 mmHg 85%
    22:00 +15°C° 0.1 mm 1 mps 637 mmHg 86%
    23:00 +14°C° 0.1 mm 1 mps 637 mmHg 88%

    23 September, Sunday

    Time Temperature Precipitation Wind Pressure Humidity
    00:00 +14°C° 0.1 mm 1 mps 637 mmHg 89%
    01:00 +14°C° 0.1 mm 1 mps 637 mmHg 90%
    02:00 +13°C° 0.1 mm 1 mps 636 mmHg 91%
    03:00 +13°C° 0.1 mm 1 mps 636 mmHg 91%
    04:00 +13°C° 0.1 mm 1 mps 636 mmHg 91%
    05:00 +13°C° 0.1 mm 1 mps 636 mmHg 91%
    06:00 +13°C° 0.1 mm 1 mps 636 mmHg 91%
    07:00 +15°C° 0.1 mm 1 mps 637 mmHg 83%
    08:00 +16°C° 0.1 mm 1 mps 637 mmHg 74%
    09:00 +18°C° 0.1 mm 2 mps 638 mmHg 66%
    10:00 +19°C° 0 mm 2 mps 638 mmHg 60%
    11:00 +20°C° 0 mm 2 mps 637 mmHg 55%
    12:00 +22°C° 0 mm 3 mps 637 mmHg 49%
    13:00 +22°C° 0.2 mm 3 mps 637 mmHg 49%
    14:00 +22°C° 0.2 mm 3 mps 636 mmHg 48%
    15:00 +22°C° 0.2 mm 3 mps 636 mmHg 48%
    16:00 +20°C° 0 mm 2 mps 636 mmHg 56%
    17:00 +18°C° 0 mm 2 mps 635 mmHg 64%
    18:00 +16°C° 0 mm 1 mps 635 mmHg 72%
    19:00 +16°C° 0 mm 1 mps 635 mmHg 74%
    20:00 +15°C° 0 mm 1 mps 635 mmHg 76%
    21:00 +15°C° 0 mm 1 mps 635 mmHg 78%
    22:00 +15°C° 0 mm 1 mps 634 mmHg 78%
    23:00 +15°C° 0 mm 1 mps 634 mmHg 78%

    24 September, Monday

    Time Temperature Precipitation Wind Pressure Humidity
    00:00 +14°C° 0 mm 1 mps 634 mmHg 77%
    01:00 +14°C° 0 mm 1 mps 634 mmHg 77%
    02:00 +14°C° 0 mm 1 mps 633 mmHg 77%
    03:00 +13°C° 0 mm 1 mps 633 mmHg 77%
    04:00 +13°C° 0 mm 1 mps 633 mmHg 77%
    05:00 +13°C° 0 mm 1 mps 633 mmHg 77%
    06:00 +13°C° 0 mm 2 mps 633 mmHg 77%
    07:00 +15°C° 0 mm 2 mps 634 mmHg 67%
    08:00 +17°C° 0 mm 2 mps 635 mmHg 58%
    09:00 +20°C° 0 mm 2 mps 635 mmHg 49%
    10:00 +21°C° 0 mm 3 mps 635 mmHg 45%
    11:00 +22°C° 0 mm 3 mps 635 mmHg 40%
    12:00 +24°C° 0 mm 3 mps 635 mmHg 36%
    13:00 +24°C° 0.1 mm 3 mps 635 mmHg 36%
    14:00 +24°C° 0.1 mm 3 mps 635 mmHg 37%
    15:00 +24°C° 0.1 mm 3 mps 634 mmHg 37%
    16:00 +21°C° 0 mm 2 mps 634 mmHg 45%
    17:00 +19°C° 0 mm 2 mps 633 mmHg 54%
    18:00 +18°C° 0 mm 1 mps 633 mmHg 62%
    19:00 +16°C° 0 mm 1 mps 633 mmHg 64%
    20:00 +16°C° 0 mm 1 mps 633 mmHg 67%
    21:00 +15°C° 0 mm 1 mps 633 mmHg 69%
    22:00 +15°C° 0 mm 1 mps 633 mmHg 68%
    23:00 +15°C° 0 mm 1 mps 633 mmHg 67%
    Show more